Ourzdine, Morocco

2:27 AM WEST on July 26, 2017 (GMT +0100)
Ourzdine

Weather History for 60230 - March, 2013

Change the Weather History Date:

Thursday, March 7, 2013

  Actual Average Record
Temperature  
Mean Temperature 66 °F -  
Max Temperature 79 °F 73 °F - ()
Min Temperature 53 °F 50 °F - ()
Cooling Degree Days 1    
Growing Degree Days 16 (Base 50)    
Moisture  
Dew Point 56 °F    
Average Humidity 74    
Maximum Humidity 100    
Minimum Humidity 40    
Precipitation  
Precipitation 0.00 in 0.05 in - ()
Sea Level Pressure  
Sea Level Pressure 30.02 in    
Wind  
Wind Speed 4 mph ()    
Max Wind Speed 16 mph    
Max Gust Speed -    
Visibility 5.9 miles    
Events      
T = Trace of Precipitation, MM = Missing Value Source: Averaged Metar Reports

Daily Weather History Graph

Daily Weather History Graph

Search for Another Location

Airport or City:

Trip Planner

Search our weather history database for the weather conditions in past years. The results will help you decide how hot, cold, wet, or windy it might be!

Date:

Astronomy

Mar. 07, 2013 Rise Set
Actual Time 6:52 AM WET 6:34 PM WET
Civil Twilight 6:27 AM WET 6:58 PM WET
Nautical Twilight 5:59 AM WET 7:27 PM WET
Astronomical Twilight 5:31 AM WET 7:55 PM WET
Moon 3:27 AM WET (3/7) 2:20 PM WET (3/7)
Length of Visible Light 12h 31m
Length of Day
11h 42m
Waning Crescent, 22% of the Moon is Illuminated
Mar 7
Waning Crescent
Mar 11
New
Mar 19
First Quarter
Mar 27
Full
Apr 3
Last Quarter

Hourly Weather History & Observations

Time (WET) Temp. Dew Point Humidity Pressure Visibility Wind Dir Wind Speed Gust Speed Precip Events Conditions
12:00 AM 58 °F 57 °F 94% 30.01 in 6 mi Calm Calm - -   Scattered Clouds
12:00 AM 57.2 °F 57.2 °F 100% 30.04 in 6.2 mi Calm Calm - N/A   Partly Cloudy
12:30 AM 57.2 °F 55.4 °F 94% 30.01 in - Calm Calm - N/A   Clear
1:00 AM 57.2 °F 55.4 °F 94% 30.01 in - Calm Calm - N/A   Clear
1:30 AM 57.2 °F 55.4 °F 94% 30.01 in - Calm Calm - N/A   Clear
2:00 AM 55.4 °F 55.4 °F 100% 30.01 in 5.6 mi Calm Calm - N/A   Unknown
2:30 AM 55.4 °F 55.4 °F 100% 29.98 in 6.2 mi Calm Calm - N/A   Partly Cloudy
3:00 AM 55 °F 55 °F 98% 29.99 in 6 mi ESE 3.5 mph - -   Scattered Clouds
3:00 AM 55.4 °F 55.4 °F 100% 29.98 in 6.2 mi ESE 4.6 mph - N/A   Partly Cloudy
3:30 AM 55.4 °F 55.4 °F 100% 29.98 in 6.2 mi SE 5.8 mph - N/A   Partly Cloudy
4:00 AM 55.4 °F 55.4 °F 100% 29.98 in 6.2 mi East 3.5 mph - N/A   Partly Cloudy
4:30 AM 55.4 °F 55.4 °F 100% 29.98 in 6.2 mi North 2.3 mph - N/A   Partly Cloudy
5:00 AM 55.4 °F 55.4 °F 100% 29.98 in 6.2 mi North 3.5 mph - N/A   Partly Cloudy
5:30 AM 53.6 °F 53.6 °F 100% 29.98 in 3.1 mi Calm Calm - N/A   Partly Cloudy
6:00 AM 54 °F 54 °F 100% 30.00 in 6 mi SSE 5.8 mph - -   Scattered Clouds
6:00 AM 53.6 °F 53.6 °F 100% 29.98 in 5.6 mi SE 5.8 mph - N/A   Partly Cloudy
6:30 AM 55.4 °F 53.6 °F 94% 29.98 in 6.2 mi SSE 6.9 mph - N/A   Partly Cloudy
7:00 AM 55.4 °F 53.6 °F 94% 30.01 in 6.2 mi SE 6.9 mph - N/A   Partly Cloudy
7:30 AM 57.2 °F 53.6 °F 88% 30.01 in 6.2 mi SE 4.6 mph - N/A   Partly Cloudy
8:00 AM 60.8 °F 55.4 °F 82% 30.01 in 6.2 mi SE 3.5 mph - N/A   Partly Cloudy
8:30 AM 64.4 °F 57.2 °F 77% 30.01 in - ENE 3.5 mph - N/A   Clear
9:00 AM 67 °F 58 °F 65% 29.99 in 6 mi ENE 2.3 mph - -   Clear
9:00 AM 66.2 °F 57.2 °F 73% 30.01 in - East 3.5 mph - N/A   Clear
9:30 AM 71.6 °F 57.2 °F 60% 30.04 in - Calm Calm - N/A   Clear
10:00 AM 71.6 °F 57.2 °F 60% 30.04 in 3.1 mi Variable 2.3 mph - N/A   Unknown
10:30 AM 71.6 °F 57.2 °F 60% 30.04 in 3.7 mi Variable 2.3 mph - N/A   Unknown
11:00 AM 73.4 °F 57.2 °F 57% 30.04 in - NNW 5.8 mph - N/A   Clear
11:30 AM 73.4 °F 59.0 °F 61% 30.04 in - WNW 9.2 mph - N/A   Clear
12:00 PM 74 °F 58 °F 47% 29.99 in 6 mi WNW 10.4 mph - -   Clear
12:00 PM 73.4 °F 59.0 °F 61% 30.04 in - WNW 10.4 mph - N/A   Clear
12:30 PM 75.2 °F 59.0 °F 57% 30.04 in 6.2 mi WNW 11.5 mph - N/A   Unknown
1:00 PM 75.2 °F 60.8 °F 61% 30.04 in - WNW 10.4 mph - N/A   Clear
1:30 PM 77.0 °F 62.6 °F 61% 30.01 in 6.2 mi WNW 5.8 mph - N/A   Scattered Clouds
2:00 PM 77.0 °F 59.0 °F 54% 30.01 in 6.2 mi WNW 13.8 mph - N/A   Scattered Clouds
2:30 PM 78.8 °F 57.2 °F 47% 30.01 in 6.2 mi West 16.1 mph - N/A   Scattered Clouds
3:00 PM 77 °F 57 °F 40% 29.93 in 6 mi WNW 13.8 mph - -   Partly Cloudy
3:00 PM 78.8 °F 57.2 °F 47% 30.01 in 6.2 mi WNW 15.0 mph - N/A   Scattered Clouds
3:30 PM 75.2 °F 57.2 °F 53% 30.01 in 6.2 mi WNW 13.8 mph - N/A   Scattered Clouds
4:00 PM 77.0 °F 57.2 °F 50% 30.01 in 6.2 mi WNW 16.1 mph - N/A   Scattered Clouds
4:30 PM 75.2 °F 57.2 °F 53% 30.01 in 6.2 mi WNW 15.0 mph - N/A   Scattered Clouds
5:00 PM 75.2 °F 57.2 °F 53% 30.01 in 6.2 mi West 16.1 mph - N/A   Scattered Clouds
5:49 PM 72 °F 56 °F 48% 29.97 in 6 mi WNW 15.0 mph - -   Partly Cloudy
6:00 PM 71.6 °F 57.2 °F 60% 30.04 in 6.2 mi WNW 15.0 mph - N/A   Scattered Clouds
6:30 PM 71.6 °F 55.4 °F 57% 30.04 in 6.2 mi WNW 13.8 mph - N/A   Scattered Clouds
7:00 PM 68.0 °F 55.4 °F 64% 30.06 in 6.2 mi WNW 8.1 mph - N/A   Scattered Clouds
7:30 PM 66.2 °F 55.4 °F 68% 30.06 in 6.2 mi WNW 10.4 mph - N/A   Scattered Clouds
8:00 PM 64.4 °F 53.6 °F 68% 30.06 in 6.2 mi West 3.5 mph - N/A   Scattered Clouds
8:30 PM 62.6 °F 55.4 °F 77% 30.06 in 6.2 mi Variable 2.3 mph - N/A   Scattered Clouds
9:00 PM 63 °F 54 °F 63% 30.04 in 6 mi West 3.5 mph - -   Partly Cloudy
9:00 PM 62.6 °F 53.6 °F 72% 30.06 in 6.2 mi West 2.3 mph - N/A   Scattered Clouds
9:30 PM 62.6 °F 53.6 °F 72% 30.06 in 6.2 mi Calm Calm - N/A   Scattered Clouds
10:00 PM 60.8 °F 53.6 °F 77% 30.06 in 6.2 mi Calm Calm - N/A   Scattered Clouds
10:30 PM 60.8 °F 53.6 °F 77% 30.06 in 6.2 mi Calm Calm - N/A   Scattered Clouds
11:30 PM 60.8 °F 55.4 °F 82% 30.06 in - SE 4.6 mph - N/A   Clear